[[{"header":{"parameterUnit":"m.s-1","parameterCategory":1,"la1":30.2991,"la2":30.254,"lo1":-89.0895,"lo2":-89.0444,"dy":0.0017,"dx":0.0017,"nx":28,"ny":28,"refTime":"2024-08-19T03:00:00:Z","depth":0,"parameterNumber":2,"parameterNumberName":"U-component_of_WINDS"},"data":[0,0,0,0,0,0,0,0,0,0,0,0,0,0,0,0,0,0,0,0,0,0,0,0,0,0,0,0,0,0,0,0,0,0,0,0,0,0,0,0,0,0,0,0,0,0,0,0,0,0,0,0,0,0,0,0,0,0,-1.7141,-1.7141,0,-1.7148,-1.7148,-1.7148,-1.713,-1.7129,-1.7128,-1.7128,-1.7136,-1.7136,-1.7137,0,0,0,0,0,0,0,0,0,0,0,0,0,-1.7113,-1.7113,-1.7141,-1.7141,-1.7141,-1.7148,-1.7148,-1.7148,-1.713,-1.7129,-1.7128,-1.7128,-1.7136,-1.7136,-1.7137,0,0,0,0,0,0,0,0,0,0,0,0,0,-1.7123,-1.7113,-1.7141,-1.7133,-1.7132,-1.7148,-1.7148,-1.7148,-1.713,-1.7129,-1.7128,-1.7127,-1.7135,-1.7136,-1.7137,-1.7162,0,0,-1.7141,-1.7141,0,0,0,0,0,0,0,0,-1.7122,-1.7124,-1.7134,-1.7134,-1.7133,-1.7137,-1.7141,-1.7153,-1.713,-1.7131,-1.7128,-1.7127,-1.7137,-1.7138,-1.7141,-1.7162,-1.7163,-1.7141,-1.7142,-1.7142,-1.7142,0,0,0,0,0,0,0,-1.7122,-1.7123,-1.7144,-1.7134,-1.7133,-1.7129,-1.7129,-1.7143,-1.7139,-1.7131,-1.7129,-1.713,-1.7136,-1.714,-1.7141,-1.7163,-1.7141,-1.7142,-1.7143,-1.7143,-1.7203,-1.7204,0,0,0,0,0,0,-1.7122,-1.7123,-1.7144,-1.7144,-1.7125,-1.713,-1.7131,-1.7137,-1.7139,-1.7138,-1.7131,-1.7129,-1.7139,-1.714,-1.7141,-1.7169,-1.7142,-1.7143,-1.7144,-1.7202,-1.7203,-1.7204,0,0,0,0,0,0,-1.7121,-1.7124,-1.7144,-1.7133,-1.7135,-1.7132,-1.7138,-1.7137,-1.7141,-1.7139,-1.7138,-1.7136,-1.7138,-1.714,-1.7157,-1.7169,-1.7144,-1.7145,-1.7201,-1.7202,-1.7204,-1.7225,0,0,0,0,0,0,-1.7121,-1.7124,-1.7133,-1.7134,-1.7136,-1.7159,-1.7139,-1.7138,-1.7143,-1.7141,-1.7143,-1.7142,-1.7137,-1.7155,-1.7158,-1.717,-1.7146,-1.72,-1.7202,-1.7203,-1.7224,-1.7227,-1.7231,0,0,0,0,0,-1.712,-1.7139,-1.7134,-1.7136,-1.7147,-1.7159,-1.7161,-1.7154,-1.7144,-1.7153,-1.7151,-1.7142,-1.7167,-1.7157,-1.716,-1.7173,-1.7199,-1.7201,-1.7203,-1.7222,-1.7227,-1.723,0,0,0,0,0,0,-1.7141,-1.7139,-1.7133,-1.7153,-1.7157,-1.7156,-1.7168,-1.716,-1.7166,-1.7164,-1.7156,-1.7157,-1.7175,-1.7176,-1.7164,-1.7196,-1.7181,-1.7184,-1.7195,-1.7199,-1.7203,-1.7202,-1.7147,0,0,0,0,0,-1.7148,-1.7158,-1.7156,-1.7174,-1.7176,-1.7172,-1.7177,-1.7171,-1.7174,-1.7176,-1.7176,-1.7179,-1.7188,-1.7194,-1.7202,-1.7224,-1.7223,-1.7234,-1.7238,-1.7241,-1.7243,-1.7253,-1.7258,-1.7211,-1.7211,-1.7211,0,0,-1.7163,-1.7163,-1.717,-1.7178,-1.718,-1.719,-1.7173,-1.7185,-1.7192,-1.7178,-1.7193,-1.7193,-1.7196,-1.7216,-1.7224,-1.7217,-1.7256,-1.7243,-1.7245,-1.7246,-1.7256,-1.726,-1.7264,-1.7212,-1.7212,-1.7212,0,0,-1.7195,-1.7196,-1.7211,-1.7213,-1.7216,-1.7212,-1.7216,-1.7217,-1.7216,-1.7231,-1.722,-1.7229,-1.7244,-1.7247,-1.725,-1.7282,-1.7273,-1.7285,-1.7303,-1.7313,-1.7317,-1.732,-1.7331,-1.7335,-1.7287,-1.7287,-1.7287,0,-1.7213,-1.7227,-1.722,-1.7232,-1.7235,-1.7223,-1.7237,-1.724,-1.7245,-1.7248,-1.724,-1.7258,-1.7259,-1.7278,-1.7286,-1.7289,-1.7293,-1.7284,-1.7317,-1.732,-1.7323,-1.7333,-1.7337,-1.7289,-1.7288,-1.7288,-1.7288,0,-1.7249,-1.7259,-1.7271,-1.7275,-1.728,-1.7294,-1.7288,-1.7294,-1.7289,-1.7286,-1.7301,-1.7303,-1.731,-1.7314,-1.7309,-1.7332,-1.7328,-1.7319,-1.7303,-1.7329,-1.7338,-1.7342,-1.729,-1.729,-1.729,-1.7289,0,0,-1.7295,-1.7294,-1.7299,-1.73,-1.7302,-1.7309,-1.7322,-1.7328,-1.7333,-1.7338,-1.7347,-1.736,-1.7351,-1.7355,-1.735,-1.7359,-1.7383,-1.7349,-1.7349,-1.7354,-1.7408,-1.7414,-1.7418,-1.7378,-1.7378,-1.7379,-1.7407,0,-1.7325,-1.7346,-1.7339,-1.736,-1.7369,-1.7357,-1.7367,-1.737,-1.7368,-1.7375,-1.7373,-1.7381,-1.737,-1.7371,-1.738,-1.7378,-1.7394,-1.7376,-1.7386,-1.7387,-1.7385,-1.7423,-1.743,-1.7456,-1.741,-1.7411,-1.7412,0,-1.7364,-1.7368,-1.739,-1.7389,-1.7392,-1.7402,-1.7407,-1.7414,-1.7416,-1.7414,-1.7418,-1.741,-1.7422,-1.7408,-1.7424,-1.7412,-1.7416,-1.7416,-1.7416,-1.7416,-1.74,-1.7423,-1.7465,-1.7468,-1.7417,-1.7417,-1.7416,0,-1.7394,-1.7405,-1.7419,-1.7421,-1.7421,-1.7428,-1.7428,-1.7429,-1.7433,-1.7438,-1.744,-1.7446,-1.7449,-1.7454,-1.7448,-1.7439,-1.7465,-1.745,-1.7463,-1.7463,-1.7469,-1.7468,-1.751,-1.7473,-1.7472,-1.7472,-1.7472,0,-1.7428,-1.7442,-1.7433,-1.7441,-1.7456,-1.7448,-1.7463,-1.7462,-1.7462,-1.747,-1.7461,-1.7468,-1.7461,-1.7468,-1.7464,-1.7477,-1.7479,-1.7477,-1.7476,-1.7477,-1.7478,-1.7479,-1.7477,-1.7473,-1.7473,-1.7473,-1.7473,0,-1.7464,-1.7458,-1.7473,-1.7471,-1.747,-1.7481,-1.7479,-1.7487,-1.7484,-1.7495,-1.7497,-1.7492,-1.75,-1.7495,-1.7503,-1.75,-1.7517,-1.7513,-1.7516,-1.7515,-1.7527,-1.7526,-1.7571,-1.7576,-1.7536,-1.7537,-1.7537,0,-1.7485,-1.7495,-1.7494,-1.7498,-1.7499,-1.7506,-1.751,-1.7503,-1.7507,-1.7509,-1.7517,-1.7523,-1.7528,-1.7541,-1.7539,-1.7544,-1.754,-1.7556,-1.7541,-1.7542,-1.7539,-1.7538,-1.7539,-1.7559,-1.7559,-1.756,-1.756,0,-1.7524,-1.7521,-1.7527,-1.7531,-1.7535,-1.7539,-1.7541,-1.7546,-1.7538,-1.7543,-1.7551,-1.7554,-1.7562,-1.7568,-1.7573,-1.7573,-1.7565,-1.7565,-1.7568,-1.7569,-1.757,-1.7568,-1.7523,-1.7563,-1.7563,-1.7563,-1.7563,-1.7562,-1.7553,-1.7561,-1.7561,-1.7567,-1.7568,-1.757,-1.7577,-1.7574,-1.758,-1.7585,-1.7581,-1.7589,-1.759,-1.7596,-1.7597,-1.7603,-1.7597,-1.7602,-1.7603,-1.7604,-1.7605,-1.7569,-1.7604,-1.7604,-1.7604,-1.7604,-1.7604,0,-1.7591,-1.759,-1.7596,-1.7599,-1.7603,-1.7595,-1.7597,-1.7602,-1.7609,-1.761,-1.7615,-1.7623,-1.7629,-1.7627,-1.7632,-1.7638,-1.7634,-1.7639,-1.7638,-1.7638,-1.7611,-1.7607,-1.7642,-1.7642,-1.7642,-1.7642,-1.7642,-1.7642,-1.7611,-1.7623,-1.7619,-1.7632,-1.7631,-1.7638,-1.764,-1.7642,-1.7643,-1.7652,-1.7657,-1.7655,-1.7655,-1.766,-1.7665,-1.7664,-1.7666,-1.7672,-1.767,-1.7644,-1.764,-1.7637,-1.7633,-1.7673,-1.7673,-1.7696,-1.7697,-1.7697]},{"header":{"parameterUnit":"m.s-1","parameterCategory":1,"la1":30.2991,"la2":30.254,"lo1":-89.0895,"lo2":-89.0444,"dy":0.0017,"dx":0.0017,"nx":28,"ny":28,"refTime":"2024-08-19T03:00:00:Z","depth":0,"parameterNumber":3,"parameterNumberName":"V-component_of_WINDS"},"data":[0,0,0,0,0,0,0,0,0,0,0,0,0,0,0,0,0,0,0,0,0,0,0,0,0,0,0,0,0,0,0,0,0,0,0,0,0,0,0,0,0,0,0,0,0,0,0,0,0,0,0,0,0,0,0,0,0,0,-3.4947,-3.4947,0,-3.5023,-3.5024,-3.5025,-3.5036,-3.5035,-3.5034,-3.5034,-3.5108,-3.5111,-3.5114,0,0,0,0,0,0,0,0,0,0,0,0,0,-3.4806,-3.4809,-3.4947,-3.4948,-3.4949,-3.5023,-3.5024,-3.5025,-3.5036,-3.5035,-3.5034,-3.5033,-3.5108,-3.5111,-3.5114,0,0,0,0,0,0,0,0,0,0,0,0,0,-3.4873,-3.481,-3.4946,-3.4963,-3.4965,-3.5023,-3.5024,-3.5026,-3.5036,-3.5035,-3.5034,-3.5033,-3.5107,-3.511,-3.5114,-3.516,0,0,-3.5126,-3.5128,0,0,0,0,0,0,0,0,-3.487,-3.4878,-3.496,-3.4962,-3.4965,-3.5019,-3.5002,-3.507,-3.5036,-3.5009,-3.5034,-3.5033,-3.5079,-3.5085,-3.5102,-3.5163,-3.5166,-3.5127,-3.5129,-3.5131,-3.5132,0,0,0,0,0,0,0,-3.4865,-3.4875,-3.4977,-3.4961,-3.4964,-3.4965,-3.4974,-3.5015,-3.5049,-3.5011,-3.5012,-3.5021,-3.508,-3.5098,-3.5104,-3.5168,-3.5127,-3.513,-3.5133,-3.5134,-3.527,-3.5271,0,0,0,0,0,0,-3.4858,-3.4871,-3.4974,-3.4979,-3.4914,-3.4969,-3.4978,-3.5002,-3.5049,-3.5055,-3.5022,-3.5022,-3.5092,-3.5099,-3.5106,-3.5162,-3.5131,-3.5135,-3.5137,-3.5268,-3.527,-3.5271,0,0,0,0,0,0,-3.4855,-3.4867,-3.4971,-3.4926,-3.4939,-3.4972,-3.5,-3.5005,-3.5022,-3.5057,-3.5063,-3.5034,-3.5091,-3.5101,-3.5147,-3.5165,-3.5136,-3.514,-3.5267,-3.5269,-3.5271,-3.5274,0,0,0,0,0,0,-3.4851,-3.4866,-3.4884,-3.4926,-3.4941,-3.5011,-3.5001,-3.5007,-3.503,-3.503,-3.507,-3.5075,-3.5091,-3.5141,-3.5151,-3.517,-3.5143,-3.5265,-3.5268,-3.527,-3.5272,-3.5276,-3.5278,0,0,0,0,0,-3.4846,-3.4881,-3.4885,-3.4897,-3.4965,-3.5012,-3.5021,-3.5039,-3.5031,-3.5049,-3.5071,-3.5074,-3.5162,-3.5145,-3.5156,-3.5177,-3.5264,-3.5267,-3.527,-3.5271,-3.5275,-3.5278,0,0,0,0,0,0,-3.4838,-3.4887,-3.4891,-3.4942,-3.4973,-3.5014,-3.5037,-3.5043,-3.5076,-3.5075,-3.5095,-3.5104,-3.5149,-3.5168,-3.5149,-3.5223,-3.5212,-3.5217,-3.5209,-3.5213,-3.5216,-3.521,-3.5146,0,0,0,0,0,-3.4843,-3.4878,-3.4918,-3.4959,-3.4974,-3.5003,-3.5024,-3.5036,-3.5069,-3.5081,-3.5107,-3.5138,-3.5172,-3.5194,-3.5228,-3.5276,-3.5284,-3.5296,-3.5299,-3.5301,-3.5305,-3.5331,-3.5336,-3.528,-3.528,-3.528,0,0,-3.4852,-3.4883,-3.4903,-3.4958,-3.4983,-3.5018,-3.5014,-3.5051,-3.5077,-3.5087,-3.5131,-3.5152,-3.5187,-3.5234,-3.5256,-3.5251,-3.5322,-3.5305,-3.5306,-3.5308,-3.5334,-3.5339,-3.5344,-3.5282,-3.5282,-3.5282,0,0,-3.4886,-3.4914,-3.495,-3.4976,-3.5016,-3.5035,-3.5044,-3.5084,-3.5098,-3.5144,-3.5152,-3.5183,-3.5242,-3.5267,-3.5287,-3.5333,-3.5336,-3.5343,-3.5358,-3.5384,-3.5388,-3.5392,-3.5407,-3.5412,-3.5347,-3.5347,-3.5347,0,-3.4892,-3.4946,-3.4968,-3.5005,-3.5028,-3.5041,-3.5077,-3.5101,-3.5149,-3.5164,-3.5159,-3.5234,-3.5258,-3.5311,-3.5322,-3.5339,-3.5349,-3.5337,-3.5386,-3.539,-3.5394,-3.5408,-3.5414,-3.5347,-3.5347,-3.5347,-3.5347,0,-3.495,-3.4988,-3.5012,-3.506,-3.5086,-3.5122,-3.5149,-3.5173,-3.5183,-3.5203,-3.5249,-3.528,-3.5319,-3.5333,-3.5343,-3.5388,-3.5383,-3.5382,-3.537,-3.5399,-3.5413,-3.5419,-3.5348,-3.5348,-3.5348,-3.5348,0,0,-3.4979,-3.504,-3.5048,-3.507,-3.5115,-3.5144,-3.5181,-3.5222,-3.5241,-3.5274,-3.5305,-3.5356,-3.5355,-3.5378,-3.5391,-3.5413,-3.5446,-3.5409,-3.541,-3.5413,-3.5496,-3.5495,-3.5501,-3.545,-3.5451,-3.5452,-3.5492,0,-3.5017,-3.5085,-3.5106,-3.5162,-3.5196,-3.521,-3.5242,-3.5273,-3.5293,-3.5324,-3.5345,-3.538,-3.5377,-3.5391,-3.5414,-3.5437,-3.5462,-3.5435,-3.5476,-3.5478,-3.5465,-3.5509,-3.5508,-3.5545,-3.5498,-3.5499,-3.5499,0,-3.507,-3.5106,-3.5165,-3.5206,-3.5221,-3.525,-3.5289,-3.5319,-3.5354,-3.5367,-3.5394,-3.5405,-3.5444,-3.5432,-3.5485,-3.5465,-3.5484,-3.5498,-3.55,-3.5503,-3.5489,-3.5511,-3.5557,-3.5562,-3.5508,-3.5508,-3.5507,0,-3.5084,-3.5146,-3.519,-3.5208,-3.5258,-3.5277,-3.5299,-3.5333,-3.5356,-3.539,-3.5405,-3.5443,-3.5463,-3.5492,-3.5513,-3.5503,-3.5563,-3.5553,-3.5573,-3.5573,-3.5583,-3.5582,-3.5631,-3.5599,-3.5599,-3.5599,-3.5599,0,-3.5122,-3.5158,-3.5197,-3.5223,-3.5263,-3.5288,-3.5326,-3.5348,-3.5379,-3.5409,-3.5424,-3.5452,-3.5479,-3.551,-3.5527,-3.5567,-3.5577,-3.5587,-3.5591,-3.5585,-3.5583,-3.5596,-3.5593,-3.56,-3.56,-3.56,-3.5599,0,-3.5143,-3.5171,-3.5219,-3.5263,-3.5275,-3.5302,-3.5339,-3.5365,-3.5386,-3.5424,-3.5435,-3.5467,-3.5505,-3.553,-3.5578,-3.5589,-3.5633,-3.5637,-3.5621,-3.5622,-3.564,-3.5638,-3.5698,-3.5706,-3.567,-3.567,-3.567,0,-3.5165,-3.5193,-3.524,-3.5262,-3.5284,-3.5319,-3.5344,-3.5369,-3.5393,-3.5436,-3.5457,-3.5496,-3.5528,-3.5588,-3.5615,-3.5652,-3.5656,-3.5675,-3.5661,-3.5654,-3.5654,-3.5652,-3.5654,-3.5676,-3.5676,-3.5676,-3.5676,0,-3.52,-3.5213,-3.5248,-3.5288,-3.5317,-3.5349,-3.5381,-3.5398,-3.5429,-3.5456,-3.5496,-3.5521,-3.5571,-3.5609,-3.5649,-3.567,-3.5678,-3.5681,-3.5687,-3.568,-3.5669,-3.5674,-3.5625,-3.5679,-3.5678,-3.5678,-3.5678,-3.5678,-3.5221,-3.5247,-3.5284,-3.5322,-3.535,-3.538,-3.5407,-3.5432,-3.5466,-3.5509,-3.5522,-3.5563,-3.5598,-3.5652,-3.5674,-3.5706,-3.5704,-3.5713,-3.5715,-3.5717,-3.5716,-3.5666,-3.5714,-3.5713,-3.5713,-3.5713,-3.5713,0,-3.5256,-3.5282,-3.5317,-3.5362,-3.5392,-3.54,-3.5436,-3.546,-3.5497,-3.5529,-3.5562,-3.5607,-3.5645,-3.5676,-3.5714,-3.5734,-3.5738,-3.5743,-3.5741,-3.5745,-3.5716,-3.5706,-3.5738,-3.5738,-3.5738,-3.5738,-3.5738,-3.5738,-3.5278,-3.5321,-3.5338,-3.5395,-3.542,-3.5461,-3.5481,-3.5508,-3.5534,-3.5585,-3.5617,-3.5638,-3.5669,-3.5711,-3.5745,-3.5753,-3.5766,-3.5769,-3.5778,-3.575,-3.5747,-3.5744,-3.5735,-3.5773,-3.5773,-3.5804,-3.5804,-3.5805]}]]